Regional Weather Roundup
Issued by NWS

Home | Current Version | Previous Version | Graphics & Text | Print | Product List | Glossary On
Versions: 1 2 3 4 5 6 7 8 9 10 11 12 13 14 15 16 17 18 19 20 21 22 23 24 25 26 27 28 29 30 31 32 33 34 35 36 37 38 39 40 41 42 43 44 45 46 47 48 49 50
892
ASUS43 KLSX 210057
RWRMO

WEATHER SUMMARY FOR MISSOURI
NATIONAL WEATHER SERVICE SPRINGFIELD MO
700 PM CST SAT JAN 20 2018

NOTE: "FAIR" INDICATES FEW OR NO CLOUDS BELOW 12,000 FEET WITH NO
       SIGNIFICANT WEATHER AND/OR OBSTRUCTIONS TO VISIBILITY.
       CURRENT SKY AND/OR WEATHER CONDITIONS ARE NOT AVAILABLE FOR
       CHILLICOTHE AND FARMINGTON.

MOZ001>031-035>038-043-044-053-054-210200-
...NORTHERN AND WESTERN MISSOURI...

CITY           SKY/WX    TMP DP  RH WIND       PRES   REMARKS
KANSAS CTY INT PTCLDY    46  42  86 E8        29.86S
LEE`S SUMMIT   CLEAR     45  44  97 E8        29.86S
ST JOSEPH      CLOUDY    46  43  89 SE3       29.86S
CHILLICOTHE      N/A     47  42  83 SE5       29.91R
KIRKSVILLE     CLOUDY    45  43  93 SE7       29.93R

$$
MOZ066>068-077>081-088>096-101>105-210200-
...SOUTHWEST MISSOURI...

CITY           SKY/WX    TMP DP  RH WIND       PRES   REMARKS
SPRINGFIELD    CLEAR     53  45  74 S15       29.88S
JOPLIN         CLEAR     57  48  72 S13       29.86S
BRANSON        CLEAR     50  46  87 SE7       29.94R

$$
MOZ032>034-039>042-045>050-055>058-069>072-210200-
...CENTRAL MISSOURI...

CITY           SKY/WX    TMP DP  RH WIND       PRES   REMARKS
COLUMBIA       NOT AVBL
JEFFERSON CITY CLEAR     52  42  69 E8        29.91S
ROLLA          CLEAR     50  43  77 SE12      29.93S
SEDALIA        CLEAR     47  45  93 E5        29.88F
WARRENSBURG    CLEAR     46  43  87 NE6       29.88R

$$
MOZ051-052-059>065-210200-
...EAST CENTRAL MISSOURI...

CITY           SKY/WX    TMP DP  RH WIND       PRES   REMARKS
ST LOUIS INTL  NOT AVBL

$$
MOZ072>076-082>087-097>100-106>115-210200-
...SOUTH CENTRAL AND SOUTHEAST MISSOURI...

CITY           SKY/WX    TMP DP  RH WIND       PRES   REMARKS
CAPE GIRARDEAU CLOUDY    45  39  79 S8        30.07R
POPLAR BLUFF   CLOUDY    46  40  79 S7        30.05F
WEST PLAINS    CLOUDY    54  47  77 S13G21    29.99R

$$



USA.gov is the U.S. government's official web portal to all federal, state and local government web resources and services.